Change the Weather History Date:

Wednesday, February 1, 2012

  Actual Average (KFWA) Record (KFWA)
Temperature  
Mean Temperature 44 °F 25 °F  
Max Temperature 53 °F 33 °F 57 °F (1968)
Min Temperature 35 °F 18 °F -8 °F (1936)
Degree Days  
Heating Degree Days 21 40  
Month to date heating degree days 40  
Since 1 July heating degree days 3611  
Cooling Degree Days 0 0  
Month to date cooling degree days 0  
Year to date cooling degree days 0  
Moisture  
Dew Point 38 °F    
Average Humidity 85    
Maximum Humidity 94    
Minimum Humidity 76    
Precipitation  
Precipitation 0.03 in 0.07 in 1.14 in (2014)
Month to date precipitation 0.07  
Year to date precipitation 2.33  
Snow  
Snow 0.00 in 0.30 in 4.90 in (2011)
Month to date snowfall 0.3  
Since 1 July snowfall 21.0  
Snow Depth -    
Sea Level Pressure  
Sea Level Pressure 30.03 in    
Wind  
Wind Speed 8 mph (WNW)    
Max Wind Speed 12 mph    
Max Gust Speed 21 mph    
Visibility 8 miles    
Events Rain    
T = Trace of Precipitation, MM = Missing Value Source: NWS Daily Summary

Daily Weather History Graph

Daily Weather History Graph

Search for Another Location

Airport or City:

Trip Planner

Search our weather history database for the weather conditions in past years. The results will help you decide how hot, cold, wet, or windy it might be!

Date:

Astronomy

Feb. 01, 2012 Rise Set
Actual Time 7:52 AM EST 5:56 PM EST
Civil Twilight 7:22 AM EST 6:25 PM EST
Nautical Twilight 6:49 AM EST 6:58 PM EST
Astronomical Twilight 6:17 AM EST 7:30 PM EST
Moon 12:22 PM EST (2/1) 2:38 AM EST (2/1)
Length of Visible Light 11h 02m
Length of Day
10h 04m
Waxing Gibbous, 64% of the Moon is Illuminated
Feb 1
Waxing Gibbous
Feb 7
Full
Feb 14
Last Quarter
Feb 21
New
Feb 29
First Quarter

Hourly Weather History & Observations

Time (EST) Temp. Windchill Dew Point Humidity Pressure Visibility Wind Dir Wind Speed Gust Speed Precip Events Conditions
12:15 AM 53.6 °F - 48.2 °F 82% 29.87 in 10.0 mi SW 10.4 mph 20.7 mph N/A   Overcast
12:35 AM 53.6 °F - 48.2 °F 82% 29.88 in 10.0 mi WSW 9.2 mph 17.3 mph N/A   Overcast
12:55 AM 51.8 °F - 50.0 °F 94% 29.88 in 7.0 mi SW 10.4 mph 18.4 mph 0.01 in Rain Light Rain
1:35 AM 51.8 °F - 50.0 °F 94% 29.89 in 7.0 mi SW 8.1 mph 16.1 mph 0.01 in   Drizzle
1:55 AM 51.8 °F - 50.0 °F 94% 29.89 in 5.0 mi WSW 10.4 mph 16.1 mph 0.02 in   Drizzle
2:15 AM 51.8 °F - 50.0 °F 94% 29.89 in 7.0 mi WSW 10.4 mph 16.1 mph N/A   Overcast
2:35 AM 51.8 °F - 50.0 °F 94% 29.90 in 10.0 mi WSW 9.2 mph - N/A   Mostly Cloudy
2:55 AM 51.8 °F - 50.0 °F 94% 29.91 in 7.0 mi WSW 10.4 mph - N/A   Mostly Cloudy
3:35 AM 50.0 °F - 46.4 °F 87% 29.92 in 10.0 mi West 11.5 mph 17.3 mph N/A   Mostly Cloudy
3:55 AM 50.0 °F - 46.4 °F 87% 29.92 in 7.0 mi West 6.9 mph - N/A   Mostly Cloudy
4:15 AM 50.0 °F - 46.4 °F 87% 29.92 in 7.0 mi West 8.1 mph - N/A   Mostly Cloudy
4:35 AM 48.2 °F - 44.6 °F 87% 29.93 in 7.0 mi West 9.2 mph - N/A   Mostly Cloudy
4:55 AM 48.2 °F - 44.6 °F 87% 29.93 in 7.0 mi West 11.5 mph - N/A   Mostly Cloudy
5:35 AM 46.4 °F 42.4 °F 42.8 °F 87% 29.95 in 7.0 mi West 8.1 mph - N/A   Scattered Clouds
5:55 AM 44.6 °F 40.7 °F 42.8 °F 93% 29.96 in 7.0 mi West 6.9 mph - N/A   Mostly Cloudy
6:15 AM 44.6 °F 38.8 °F 41.0 °F 87% 29.97 in 7.0 mi WNW 11.5 mph - N/A   Scattered Clouds
6:35 AM 42.8 °F 38.0 °F 37.4 °F 81% 29.97 in 7.0 mi WNW 8.1 mph - N/A   Clear
6:55 AM 41.0 °F 35.2 °F 37.4 °F 87% 29.99 in 7.0 mi WNW 9.2 mph - N/A   Clear
7:15 AM 41.0 °F 36.4 °F 35.6 °F 81% 30.00 in 7.0 mi WNW 6.9 mph - N/A   Clear
7:35 AM 39.2 °F 33.6 °F 35.6 °F 87% 30.01 in 10.0 mi West 8.1 mph - N/A   Clear
7:55 AM 37.4 °F 32.1 °F 35.6 °F 93% 30.02 in 7.0 mi West 6.9 mph - N/A   Clear
8:15 AM 37.4 °F 32.1 °F 35.6 °F 93% 30.03 in 7.0 mi West 6.9 mph - N/A   Clear
8:35 AM 37.4 °F 33.8 °F 35.6 °F 93% 30.04 in 7.0 mi West 4.6 mph - N/A   Clear
8:55 AM 37.4 °F 31.4 °F 35.6 °F 93% 30.05 in 5.0 mi West 8.1 mph - N/A   Clear
9:15 AM 41.0 °F 36.4 °F 35.6 °F 81% 30.05 in 7.0 mi West 6.9 mph - N/A   Clear
9:35 AM 41.0 °F 36.4 °F 35.6 °F 81% 30.05 in 7.0 mi WNW 6.9 mph - N/A   Clear
9:55 AM 41.0 °F 35.8 °F 35.6 °F 81% 30.06 in 7.0 mi West 8.1 mph - N/A   Scattered Clouds
10:15 AM 41.0 °F 36.4 °F 35.6 °F 81% 30.07 in 7.0 mi WNW 6.9 mph - N/A   Overcast
10:35 AM 41.0 °F 36.4 °F 35.6 °F 81% 30.07 in 7.0 mi NW 6.9 mph - N/A   Overcast
10:55 AM 41.0 °F 36.4 °F 35.6 °F 81% 30.08 in 5.0 mi NW 6.9 mph - N/A   Overcast
11:15 AM 41.0 °F 35.8 °F 35.6 °F 81% 30.08 in 5.0 mi WNW 8.1 mph - N/A   Overcast
11:35 AM 41.0 °F 38.0 °F 35.6 °F 81% 30.09 in 5.0 mi West 4.6 mph - N/A   Overcast
11:55 AM 41.0 °F 38.0 °F 35.6 °F 81% 30.09 in 5.0 mi WNW 4.6 mph - N/A   Overcast
12:15 PM 41.0 °F 39.0 °F 35.6 °F 81% 30.09 in 5.0 mi NW 3.5 mph - N/A   Overcast
12:35 PM 41.0 °F 38.0 °F 35.6 °F 81% 30.09 in 5.0 mi West 4.6 mph - N/A   Overcast
12:55 PM 41.0 °F 36.4 °F 35.6 °F 81% 30.09 in 7.0 mi West 6.9 mph - N/A   Overcast
1:15 PM 41.0 °F 38.0 °F 35.6 °F 81% 30.08 in 7.0 mi WNW 4.6 mph - N/A   Overcast
1:35 PM 41.0 °F 35.8 °F 35.6 °F 81% 30.08 in 7.0 mi WNW 8.1 mph - N/A   Overcast
1:55 PM 41.0 °F 36.4 °F 35.6 °F 81% 30.08 in 7.0 mi WNW 6.9 mph - N/A   Overcast
2:15 PM 41.0 °F 38.0 °F 35.6 °F 81% 30.08 in 7.0 mi WNW 4.6 mph - N/A   Overcast
2:35 PM 41.0 °F 36.4 °F 35.6 °F 81% 30.07 in 7.0 mi West 6.9 mph - N/A   Overcast
2:55 PM 41.0 °F 35.2 °F 35.6 °F 81% 30.07 in 7.0 mi NNW 9.2 mph - N/A   Overcast
3:15 PM 41.0 °F 37.1 °F 35.6 °F 81% 30.07 in 10.0 mi NW 5.8 mph - N/A   Overcast
3:35 PM 41.0 °F 39.0 °F 35.6 °F 81% 30.07 in 10.0 mi NW 3.5 mph - N/A   Overcast
3:55 PM 41.0 °F 39.0 °F 35.6 °F 81% 30.08 in 10.0 mi NNW 3.5 mph - N/A   Overcast
4:15 PM 41.0 °F 36.4 °F 35.6 °F 81% 30.08 in 10.0 mi NW 6.9 mph - N/A   Overcast
4:35 PM 41.0 °F 39.0 °F 35.6 °F 81% 30.09 in 10.0 mi NW 3.5 mph - N/A   Overcast
4:55 PM 41.0 °F 37.1 °F 35.6 °F 81% 30.10 in 10.0 mi NW 5.8 mph - N/A   Overcast
5:15 PM 41.0 °F 37.1 °F 35.6 °F 81% 30.10 in 10.0 mi WNW 5.8 mph - N/A   Overcast
5:35 PM 41.0 °F 38.0 °F 33.8 °F 76% 30.11 in 10.0 mi NW 4.6 mph - N/A   Overcast
5:55 PM 41.0 °F - 33.8 °F 76% 30.11 in 10.0 mi Calm Calm - N/A   Overcast
6:15 PM 41.0 °F 39.0 °F 33.8 °F 76% 30.11 in 10.0 mi NW 3.5 mph - N/A   Overcast
6:55 PM 39.2 °F 37.0 °F 33.8 °F 81% 30.11 in 10.0 mi NNW 3.5 mph - N/A   Mostly Cloudy
7:15 PM 39.2 °F 37.0 °F 33.8 °F 81% 30.11 in 10.0 mi NNW 3.5 mph - N/A   Mostly Cloudy
7:35 PM 37.4 °F 34.9 °F 33.8 °F 87% 30.11 in 10.0 mi NNW 3.5 mph - N/A   Mostly Cloudy
7:55 PM 37.4 °F - 33.8 °F 87% 30.10 in 10.0 mi Calm Calm - N/A   Mostly Cloudy
8:15 PM 37.4 °F - 32.0 °F 81% 30.10 in 10.0 mi Calm Calm - N/A   Scattered Clouds
8:35 PM 35.6 °F 32.8 °F 32.0 °F 87% 30.10 in 10.0 mi NW 3.5 mph - N/A   Clear
8:55 PM 35.6 °F 31.7 °F 32.0 °F 87% 30.10 in 7.0 mi NNW 4.6 mph - N/A   Scattered Clouds
9:15 PM 35.6 °F - 33.8 °F 93% 30.10 in 7.0 mi Calm Calm - N/A   Mostly Cloudy
9:35 PM 35.6 °F - 32.0 °F 87% 30.11 in 7.0 mi Calm Calm - N/A   Mostly Cloudy
9:55 PM 35.6 °F - 32.0 °F 87% 30.11 in 7.0 mi Calm Calm - N/A   Mostly Cloudy
10:15 PM 35.6 °F 32.8 °F 32.0 °F 87% 30.11 in 7.0 mi North 3.5 mph - N/A   Scattered Clouds
10:35 PM 33.8 °F 30.8 °F 32.0 °F 93% 30.11 in 7.0 mi North 3.5 mph - N/A   Clear
10:55 PM 33.8 °F - 32.0 °F 93% 30.12 in 7.0 mi Calm Calm - N/A   Clear
11:15 PM 33.8 °F - 32.0 °F 93% 30.12 in 7.0 mi Calm Calm - N/A   Clear
11:35 PM 33.8 °F 30.8 °F 32.0 °F 93% 30.13 in 7.0 mi NNW 3.5 mph - N/A   Clear
11:55 PM 33.8 °F 29.6 °F 32.0 °F 93% 30.13 in 7.0 mi NNW 4.6 mph - N/A   Clear